Temp
24 25 25 25 25 25 25 25 25 25 24 25 25 24 24 24 24 24 24 24 24 24
24 25 25 25 25 25 25 25 25 25 25 25 24 24 24 24 24 24 24 24 24 24
24 24 25 25 25 25 25 25 25 25 25 25 25 24 24 24 24 24 24 24 24 24
24 24 24 24 24 25 25 25 25 25 25 25 25 24 24 24 24 24 24 23 24 24
23 24 24 24 24 25 25 25 25 25 25 25 24 24 24 24 24 23 23 23 23 24
22 23 24 24 24 24 24 24 24 25 25 24 24 24 24 23 23 23 23 23 23 23
22 22 23 24 24 24 24 24 24 24 24 24 24 24 23 23 23 23 23 23 23 23
22 23 23 23 23 24 24 24 24 24 24 24 23 23 23 23 23 23 23 22 22 22
21 21 22 22 22 23 23 24 24 24 24 24 23 23 23 23 23 23 23 22 22 22
20 20 21 21 21 22 23 23 24 24 24 24 23 23 22 22 22 22 21 21 21 21
20 20 21 21 21 22 23 24 24 24 24 23 22 22 22 21 21 21 21 20 20 20
19 20 20 19 21 21 21 23 23 23 22 21 21 20 20 19 19 19 19 19 19 18
19 18 19 21 21 20 19 21 21 19 18 17 17 17 18 18 18 18 18 17 17 16
17 18 20 19 19 18 19 18 17 17 16 16 17 17 17 17 17 17 16 16 15 15
Height
814 816 819 823 825 828 830 832 835 837 839 840 841 841 840 840 841 842 841 841 841 840
810 812 814 818 821 824 827 829 832 834 835 838 839 840 839 839 840 840 840 840 839 838
806 809 811 814 817 820 823 826 828 830 831 833 835 837 837 837 837 837 838 838 837 836
800 805 808 810 812 815 818 820 822 825 827 829 832 833 834 834 834 834 835 835 835 834
796 800 803 806 808 810 813 816 818 821 822 824 827 830 830 830 830 830 831 832 832 831
793 794 796 800 804 807 809 812 815 817 819 822 823 825 825 826 826 826 827 828 828 828
788 789 792 794 799 803 805 806 809 812 815 817 819 820 820 822 822 823 824 824 824 825
779 784 786 789 793 796 800 803 805 807 809 812 813 814 816 818 818 819 820 822 822 823
774 778 778 782 786 790 794 798 801 804 806 807 809 810 813 815 816 817 818 820 821 822
759 772 770 775 778 781 787 791 795 799 802 804 805 806 809 811 813 815 817 818 818 818
756 758 764 767 772 774 779 784 788 793 797 800 802 805 806 808 811 813 814 815 815 815
751 751 755 760 765 767 772 778 783 788 792 796 799 802 804 807 809 810 812 813 813 815
745 749 752 752 755 758 765 771 778 784 789 794 799 800 803 806 808 809 811 814 814 816
739 741 745 747 746 752 759 767 776 782 788 793 796 800 802 805 807 809 811 813 814 816
Wind_Speed
27 26 22 21 19 24 23 22 20 18 17 17 15 13 12 9 9 8 8 8 8 8
29 27 28 22 20 22 24 24 22 19 17 18 16 16 14 13 14 12 9 10 9 7
34 30 28 27 22 23 23 22 21 20 19 18 20 17 16 15 14 14 13 11 11 10
39 36 32 31 29 25 24 21 17 19 19 20 20 19 18 17 17 17 16 14 12 12
39 41 39 36 32 28 26 25 23 20 20 20 19 19 20 20 19 18 17 18 17 16
35 39 42 41 37 31 29 24 22 22 22 23 22 21 20 19 19 20 20 19 17 15
35 38 39 40 38 33 28 25 26 25 23 22 20 19 18 18 20 17 17 15 13 12
38 39 37 36 37 37 33 31 28 27 24 21 19 19 17 15 15 15 12 10 9 10
35 38 37 35 35 37 38 36 33 30 25 22 19 19 15 14 14 14 11 10 8 8
30 31 27 29 30 32 37 37 34 30 29 23 21 20 18 15 12 10 10 10 9 9
38 28 22 14 18 29 30 33 32 29 26 24 22 21 20 16 13 12 10 8 8 8
29 33 30 32 20 22 28 31 31 28 24 23 20 19 19 15 12 10 9 8 6 5
34 29 24 26 20 23 25 27 26 24 21 16 11 11 13 12 12 13 9 7 6 5
26 20 24 21 23 28 29 26 23 23 18 15 11 8 8 9 13 13 12 11 9 5
Wind_Direction
212 215 216 223 235 227 229 232 230 233 234 241 233 230 236 238 234 235 249 251 255 260
214 215 219 224 232 229 236 235 243 240 242 233 238 236 237 238 241 243 247 245 260 261
215 217 219 219 223 227 229 232 240 245 242 238 234 234 240 248 248 248 254 258 261 255
220 219 221 221 222 226 227 231 239 246 244 240 237 235 242 247 249 253 252 249 257 263
223 223 224 223 224 222 226 231 236 240 239 230 236 242 244 247 246 246 251 260 261 262
223 225 226 228 228 225 223 223 220 221 225 236 242 247 248 248 247 249 253 257 259 261
229 226 227 229 229 227 224 221 221 228 236 241 245 243 246 248 248 245 246 252 255 261
226 229 228 230 231 226 225 227 229 231 232 239 245 246 246 246 250 245 236 241 254 264
229 227 224 227 230 230 231 231 235 238 234 236 236 229 233 240 254 255 242 237 239 248
216 209 203 216 223 229 237 235 233 234 234 229 224 222 221 224 231 220 221 230 247 258
197 205 202 221 234 228 232 235 228 227 224 222 218 223 219 215 217 220 226 234 242 247
212 212 219 212 236 242 227 231 229 223 212 209 208 216 209 206 204 205 205 212 205 213
231 223 221 228 228 221 211 206 205 195 194 192 197 189 197 193 201 189 179 162 145 141
203 207 223 212 195 189 184 181 176 165 158 158 157 166 188 197 192 189 160 138 119 85